EHI
0 0 0 0 0 0 0 0 0 0 0 0 0 0 0 0 0 0 0 0 0 0 0 0 0 0 0 0 0 0 0 0 0 0 0 0 0 0 0 0 0 0 0
0 0 0 0 0 0 0 0 0 0 0 0 0 0 0 0 0 0 0 0 0 0 0 0 0 0 0 0 0 0 0 0 0 0 0 0 0 0 0 0 0 0 0
0 0 0 0 0 0 0 0 0 0 0 0 0 0 0 0 0 0 0 0 0 0 0 0 0 0 0 0 0 0 0 0 0 0 0 0 0 0 0 0 0 0 0
0 0 0 0 0 0 0 0 0 0 0 0 0 0 0 0 0 0 0 0 0 0 0 0 0 0 0 0 0 0 0 0 0 0 0 0 0 0 0 0 0 0 0
0 0 0 0 0 0 0 0 0 0 0 0 0 0 0 0 0 0 0 0 0 0 0 0 0 0 0 0 0 0 0 0 0 0 0 0 0 0 0 0 0 0 0
0 0 0 0 0 0 0 0 0 0 0 0 0 0 0 0 0 0 0 0 0 0 0 0 0 0 0 0 0 0 0 0 0 0 0 0 0 0 0 0 0 0 0
0 0 0 0 0 0 0 0 0 0 0 0 0 0 0 0 0 0 0 0 0 0 0 0 0 0 0 0 0 0 0 0 0 0 0 0 0 0 0 0 0 0 0
0 0 0 0 0 0 0 0 0 0 0 0 0 0 0 0 0 0 0 0 0 0 0 0 0 0 0 0 0 0 0 0 0 0 0 0 0 0 0 0 0 0 0
0 0 0 0 0 0 0 0 0 0 0 0 0 0 0 0 0 0 0 0 0 0 0 0 0 0 0 0 0 0 0 0 0 0 0 0 0 0 0 0 0 0 0
0 0 0 0 0 0 0 0 0 0 0 0 0 0 0 0 0 0 0 0 0 0 0 0 0 0 0 0 0 0 0 0 0 0 0 0 0 0 0 0 0 0 0
0 0 0 0 0 0 0 0 0 0 0 0 0 0 0 0 0 0 0 0 0 0 0 0 0 0 0 0 0 0 0 0 0 0 0 0 0 0 0 0 0 0 0
0 0 0 0 0 0 0 0 0 0 0 0 0 0 0 0 0 0 0 0 0 0 0 0 0 0 0 0 0 0 0 0 0 0 0 0 0 0 0 0 0 0 0
0 0 0 0 0 0 0 0 0 0 0 0 0 0 0 0 0 0 0 0 0 0 0 0 0 0 0 0 0 0 0 0 0 0 0 0 0 0 0 0 0 0 0
0 0 0 0 0 0 0 0 0 0 0 0 0 0 0 0 0 0 0 0 0 0 0 0 0 0 0 0 0 0 0 0 0 0 0 0 0 0 0 0 0 0 0
0 0 0 0 0 0 0 0 0 0 0 0 0 0 0 0 0 0 0 0 0 0 0 0 0 0 0 0 0 0 0 0 0 0 0 0 0 0 0 0 0 0 0
0 0 0 0 0 0 0 0 0 0 0 0 0 0 0 0 0 0 0 0 0 0 0 0 0 0 0 0 0 0 0 0 0 0 0 0 0 0 0 0 0 0 0
0 0 0 0 0 0 0 0 0 0 0 0 0 0 0 0 0 0 0 0 0 0 0 0 0 0 0 0 0 0 0 0 0 0 0 0 0 0 0 0 0 0 0
0 0 0 0 0 0 0 0 0 0 0 0 0 0 0 0 0 0 0 0 0 0 0 0 0 0 0 0 0 0 0 0 0 0 0 0 0 0 0 0 0 0 0
0 0 0 0 0 0 0 0 0 0 0 0 0 0 0 0 0 0 0 0 0 0 0 0 0 0 0 0 0 0 0 0 0 0 0 0 0 0 0 0 0 0 0
0 0 0 0 0 0 0 0 0 0 0 0 0 0 0 0 0 0 0 0 0 0 0 0 0 0 0 0 0 0 0 0 0 0 0 0 0 0 0 0 0 0 0
0 0 0 0 0 0 0 0 0 0 0 0 0 0 0 0 0 0 0 0 0 0 0 0 0 0 0 0 0 0 0 0 0 0 0 0 0 0 0 0 0 0 0
0 0 0 0 0 0 0 0 0 0 0 0 0 0 0 0 0 0 0 0 0 0 0 0 0 0 0 0 0 0 0 0 0 0 0 0 0 0 0 0 0 0 0
0 0 0 0 0 0 0 0 0 0 0 0 0 0 0 0 0 0 0 0 0 0 0 0 0 0 0 0 0 0 0 0 0 0 0 0 0 0 0 0 0 0 0
0 0 0 0 0 0 0 0 0 0 0 0 0 0 0 0 0 0 0 0 0 0 0 0 0 0 0 0 0 0 0 0 0 0 0 0 0 0 0 0 0 0 0
0 0 0 0 0 0 0 0 0 0 0 0 0 0 0 0 0 0 0 0 0 0 0 0 0 0 0 0 0 0 0 0 0 0 0 0 0 0 0 0 0 0 0
0 0 0 0 0 0 0 0 0 0 0 0 0 0 0 0 0 0 0 0 0 0 0 0 0 0 0 0 0 0 0 0 0 0 0 0 0 0 0 0 0 0 0
Wind_Speed
14 13 14 13 12 12 11 10 9 7 7 7 7 6 6 6 5 5 5 5 5 4 4 4 3 2 3 3 3 3 3 3 3 4 3 4 4 4 4 4 5 6 6
12 12 12 12 11 10 10 8 7 7 6 6 5 5 5 5 4 4 5 5 4 4 4 4 4 4 5 4 4 4 3 3 3 5 4 5 5 5 5 5 6 7 5
11 11 11 10 9 9 8 7 6 6 6 5 5 5 5 6 6 5 5 4 4 4 4 4 4 5 5 5 5 4 4 5 4 4 5 4 4 5 5 5 6 4 7
10 10 10 9 8 7 7 6 6 5 5 5 5 5 7 8 9 8 8 5 4 3 3 3 3 3 4 5 5 5 5 6 5 5 5 5 4 4 4 4 5 4 5
10 10 9 8 7 6 6 5 4 4 5 4 5 6 6 7 8 9 8 7 6 4 4 4 4 2 1 3 4 4 5 5 6 6 6 6 5 5 5 4 6 6 6
8 9 8 7 6 6 5 5 5 5 5 5 5 6 8 7 8 10 9 8 7 5 4 4 4 1 1 4 7 8 8 7 6 6 7 7 7 6 5 5 5 6 5
7 8 7 7 6 5 6 5 5 5 4 4 5 6 7 6 7 9 11 8 7 5 4 3 5 4 4 6 7 9 9 10 11 8 8 8 8 7 6 7 6 7 7
7 7 7 6 6 5 5 5 4 4 3 3 4 5 6 5 5 8 13 8 6 4 3 3 3 3 5 6 8 8 8 7 7 6 6 8 8 6 5 6 8 8 8
7 6 6 6 5 5 5 4 3 2 2 2 3 4 4 3 3 7 10 8 4 5 5 4 3 4 4 6 7 8 8 7 8 8 10 12 14 14 10 5 6 6 7
7 6 6 5 5 5 4 3 2 1 2 2 3 3 3 4 2 5 8 6 6 6 5 3 3 3 6 6 6 7 8 8 9 11 9 9 9 10 10 7 6 6 6
6 6 5 4 3 4 3 2 2 2 2 1 2 2 3 3 2 3 5 5 6 7 6 5 2 4 9 10 8 7 9 9 9 9 7 7 6 5 4 4 5 5 5
5 5 3 2 2 4 2 1 1 2 1 0 1 2 2 3 2 1 5 6 6 6 6 5 6 11 13 14 10 10 12 10 6 6 6 6 5 5 4 4 4 4 5
4 4 3 2 3 2 2 2 1 2 3 3 3 3 2 2 2 3 7 9 9 5 6 10 13 15 13 9 8 11 9 5 5 5 5 5 5 5 5 4 4 3 3
3 2 2 1 1 1 2 3 4 5 5 5 5 4 3 3 5 6 7 7 9 7 8 11 13 12 8 8 8 6 4 4 4 4 5 5 4 4 4 3 3 2 2
1 0 1 1 2 2 4 4 5 5 4 4 5 5 5 5 5 6 5 6 7 7 9 8 5 4 4 4 4 4 4 3 4 4 4 4 4 4 4 3 2 2 2
1 0 1 1 1 2 4 5 7 5 4 4 3 3 2 3 6 9 10 11 13 10 7 6 5 4 4 5 5 5 4 4 4 4 4 4 4 4 4 4 3 2 2
0 1 1 1 0 1 3 4 5 3 1 1 3 4 5 7 9 10 11 14 15 10 4 4 4 4 5 5 5 5 5 5 5 5 5 5 5 5 4 4 3 3 2
1 1 2 1 0 1 1 1 2 3 3 3 4 7 8 9 10 12 11 11 6 3 3 4 4 4 5 5 5 5 5 5 5 5 5 5 5 5 4 4 3 4 3
1 1 1 1 1 2 1 1 2 2 2 2 2 3 6 8 10 12 9 5 5 5 5 5 5 5 5 5 5 6 6 5 6 6 6 7 6 5 5 4 4 4 3
1 1 2 2 1 2 2 2 3 3 2 2 2 3 2 3 2 3 2 3 4 5 5 6 6 5 6 6 6 7 7 7 8 7 8 8 7 6 6 6 5 4 4
4 4 3 2 1 2 3 3 3 3 2 2 3 3 3 4 4 4 4 4 4 5 5 5 6 6 7 7 8 9 10 9 9 9 10 9 8 7 6 5 5 4 4
1 3 3 2 3 4 3 3 3 3 3 3 2 1 1 2 3 3 3 4 4 4 4 5 6 7 7 8 8 8 9 9 10 10 10 10 9 8 6 5 5 4 4
1 2 3 4 4 3 1 3 3 3 3 2 2 3 2 3 3 3 4 4 4 4 4 4 5 7 8 7 7 8 8 9 9 10 10 11 10 8 6 6 6 6 5
1 2 4 4 3 3 3 3 3 3 2 2 2 2 2 2 3 4 4 3 3 3 4 4 6 10 11 8 7 8 8 8 9 9 12 11 10 7 7 7 6 6 6
2 4 4 3 3 3 3 3 2 2 1 1 1 2 2 3 4 4 4 3 4 4 6 5 5 8 11 12 11 11 11 11 9 9 10 9 9 7 8 9 7 6 5
4 4 3 3 3 3 3 3 2 2 1 1 2 2 2 4 4 4 4 4 4 4 4 4 8 11 12 10 12 12 12 13 14 13 10 7 6 6 8 7 10 8 7
Wind_Direction
75 77 79 79 79 80 80 80 81 82 79 78 76 75 70 63 56 53 53 55 50 38 28 29 17 359 358 339 343 343 350 356 331 314 321 328 326 307 300 290 286 274 267
82 82 82 83 84 84 84 83 83 84 84 84 81 77 74 68 58 52 47 47 41 32 22 14 7 11 4 360 350 340 339 326 316 315 311 304 304 297 289 287 292 296 298
88 87 86 86 86 88 90 92 92 90 85 80 77 72 64 56 41 29 31 37 30 24 18 9 10 14 9 2 337 339 334 335 322 307 303 300 297 302 307 299 301 299 301
95 93 92 92 93 93 94 93 92 91 88 82 75 68 66 52 36 19 6 8 13 9 6 355 1 17 16 351 333 346 340 330 318 308 301 301 300 309 317 314 309 303 297
98 97 97 98 97 96 93 90 86 83 84 77 72 69 74 64 34 18 354 357 353 353 356 350 340 4 4 303 325 335 326 321 317 314 313 313 320 332 326 318 313 310 297
101 101 102 103 102 100 96 86 78 67 62 60 60 63 57 53 30 15 1 340 329 338 346 338 324 84 317 278 286 288 285 291 302 308 308 312 317 319 316 315 315 315 310
110 111 109 105 101 98 93 86 79 73 67 57 60 77 85 61 19 1 354 325 310 319 325 326 339 17 18 355 333 310 290 273 259 262 281 291 299 303 311 313 310 306 296
111 108 104 97 92 87 81 77 73 67 64 63 61 80 100 77 15 357 343 318 303 318 328 340 349 21 33 358 330 321 313 307 288 263 258 272 284 294 300 294 292 293 290
106 101 98 97 93 87 80 75 69 60 50 75 71 78 102 104 16 358 348 319 339 347 343 2 360 32 34 349 325 318 317 316 321 315 282 273 276 278 271 279 286 294 303
101 95 90 85 84 78 70 56 49 26 31 49 64 70 89 99 61 354 349 341 355 348 346 4 72 5 337 332 321 315 311 317 324 317 306 294 282 275 268 243 258 280 294
101 97 93 96 109 97 72 38 7 18 28 32 62 89 98 98 146 307 339 346 352 340 341 340 359 333 323 316 305 283 286 304 305 299 302 306 303 290 278 254 240 247 270
105 102 97 78 57 92 78 22 353 338 329 80 73 76 107 124 85 328 311 312 308 314 323 334 332 320 315 308 299 285 296 302 291 300 309 309 309 304 299 289 274 260 249
102 98 93 79 60 46 15 14 9 5 9 26 40 46 48 66 63 347 326 317 311 298 318 322 315 309 309 304 302 304 303 294 295 305 309 306 298 293 297 300 300 296 287
107 122 141 133 118 88 42 32 41 28 18 16 29 29 29 47 29 5 349 343 349 350 345 322 314 312 309 298 303 304 292 289 298 301 302 300 299 302 305 305 318 328 325
124 159 170 138 120 101 82 52 53 62 49 27 19 11 15 16 9 338 329 329 332 328 324 307 307 320 325 323 319 312 307 316 321 313 313 318 324 329 328 327 333 347 352
163 257 271 181 160 150 137 112 63 93 104 76 47 9 24 14 328 325 324 318 311 309 313 307 326 345 347 343 340 337 335 340 332 329 335 335 338 340 339 341 357 6 1
357 341 315 333 132 148 144 150 152 149 175 286 293 306 309 312 311 313 318 319 307 304 299 314 344 347 341 340 341 341 338 338 338 338 342 340 340 339 341 340 351 0 1
279 219 276 308 9 79 70 100 138 162 173 186 224 251 270 284 293 300 313 322 319 340 346 352 351 347 344 344 347 346 344 345 348 344 346 342 338 338 340 340 345 0 356
322 26 5 360 46 81 61 48 77 72 79 118 162 201 246 266 271 278 293 306 341 0 1 354 348 350 349 349 350 346 346 352 356 351 347 340 338 337 339 342 347 0 359
133 54 329 316 82 89 73 55 59 63 63 66 69 50 9 319 330 334 338 359 0 3 6 351 343 356 359 358 357 354 358 2 0 354 345 340 337 337 341 344 351 359 3
177 164 210 255 80 70 64 64 64 64 59 52 65 59 351 337 358 5 17 14 9 8 9 348 350 7 9 3 0 1 7 6 359 351 342 336 334 335 338 343 348 1 5
170 163 166 120 93 70 48 60 65 70 63 49 65 126 256 312 4 15 21 18 18 13 9 356 4 14 16 9 3 9 8 0 351 344 336 331 332 333 338 344 348 351 8
246 126 115 101 98 114 120 78 72 67 59 41 31 28 33 15 18 27 30 27 21 14 11 7 17 21 20 16 8 19 10 352 335 325 325 324 325 328 338 341 345 355 5
101 102 108 111 111 117 102 91 83 74 66 50 36 26 19 19 35 43 37 23 25 20 21 21 34 29 23 23 10 12 7 343 326 318 319 314 317 335 342 338 342 358 0
135 108 110 112 116 113 107 101 91 78 70 69 47 19 13 37 49 50 39 13 34 36 27 29 43 38 20 21 14 3 346 334 328 325 317 313 323 346 344 341 348 354 2
119 115 117 119 123 126 123 119 112 108 90 71 48 23 31 50 53 44 39 20 24 41 33 28 51 52 27 14 7 358 347 340 336 332 322 313 337 356 348 347 352 356 3